This is the latest recevied weather packets stored in our database for station/object PP5EO-15. If no packets are shown the sender has not sent any weather packets the latest 10 day(s).
| Time | Temp. | Humidity | Pressure | Rain* | Wind** | Luminosity | Snow |
|---|---|---|---|---|---|---|---|
| 1777588728 | 30° C | 47% | 1017.5 hPa | - | - | - | - |
| 1777588133 | 30° C | 46% | 1017.3 hPa | - | - | - | - |
| 1777587538 | 30° C | 46% | 1017.2 hPa | - | - | - | - |
| 1777586943 | 30° C | 45% | 1017.1 hPa | - | - | - | - |
| 1777586350 | 30.56° C | 45% | 1017 hPa | - | - | - | - |
| 1777585753 | 30.56° C | 44% | 1016.8 hPa | - | - | - | - |
| 1777585158 | 30.56° C | 43% | 1016.6 hPa | - | - | - | - |
| 1777584563 | 30.56° C | 43% | 1016.5 hPa | - | - | - | - |
| 1777583295 | 31.67° C | 41% | 1016.4 hPa | - | - | - | - |
| 1777582700 | 32.22° C | 38% | 1016.3 hPa | - | - | - | - |
| 1777582106 | 32.22° C | 37% | 1016.1 hPa | - | - | - | - |
| 1777580537 | 33.33° C | 35% | 1016 hPa | - | - | - | - |
| 1777579941 | 33.89° C | 35% | 1015.9 hPa | - | - | - | - |
| 1777579347 | 33.89° C | 35% | 1015.9 hPa | - | - | - | - |
| 1777578751 | 33.89° C | 34% | 1015.7 hPa | - | - | - | - |
| 1777578156 | 34.44° C | 33% | 1015.6 hPa | - | - | - | - |
| 1777577561 | 34.44° C | 33% | 1015.6 hPa | - | - | - | - |
| 1777576966 | 34.44° C | 33% | 1015.6 hPa | - | - | - | - |
| 1777576371 | 34.44° C | 34% | 1015.5 hPa | - | - | - | - |
| 1777575776 | 34.44° C | 35% | 1015.5 hPa | - | - | - | - |
| 1777575182 | 34.44° C | 35% | 1015.5 hPa | - | - | - | - |
| 1777574586 | 34.44° C | 34% | 1015.4 hPa | - | - | - | - |
| 1777573991 | 35° C | 34% | 1015.3 hPa | - | - | - | - |
| 1777573397 | 35° C | 34% | 1015.4 hPa | - | - | - | - |
| 1777572801 | 35° C | 33% | 1015.3 hPa | - | - | - | - |
* Rain since midnight (hover to see other rain measurements)
** Current wind speed in m/s (hover to see current wind gust speed)